Simultaneous Nadir Overpasses (SNOs) Predictions

Prediction of SNOs over PacNW region [( 10.00, 139.50) to ( 22.70, 165.60)] between AQUA and NPP Satellites:

Table of predicted SNOs over PacNW region for the next 30.0 days since TLE Epoch: 12/22/2017
Index Date (AQUA) Time (AQUA) AQUA Lat,Lon Date (NPP) Time (NPP) NPP Lat,Lon Distance(km) Time Diff (sec)
1 12/26/2017 15:59:25 22.58, 147.49 12/26/2017 16:02:03 23.27, 144.50 315.67 158
2 01/03/2018 15:10:01 22.63, 159.86 01/03/2018 15:11:14 23.24, 157.19 281.81 73
3 01/06/2018 03:31:53 22.70, 147.51 01/06/2018 03:28:23 25.85, 144.90 439.29 210
4 01/11/2018 15:59:31 22.61, 147.49 01/11/2018 16:01:54 23.30, 144.53 313.64 143




NCC Satellite Simultaneous Nadir Overpasses (SNOs) Prediction Service
